N5CSU Weather Reports


time (UTC)temp
F
wind
direction
speed
knots
gust
knots
rain 1hr
in
rain 24hr
in
rain mn
in
humidity
%
barometer
mb
20260906234542 96 201 0.0 0.0 0.00 0.00 0.00 44 1011.1
20260906234037 97 186 0.0 0.0 0.00 0.00 0.00 45 1010.9
20260906233535 96 191 0.0 0.0 0.00 0.00 0.00 45 1010.8
20260906233035 97 188 0.0 0.0 0.00 0.00 0.00 45 1011.0
20260906232530 97 184 0.0 0.0 0.00 0.00 0.00 45 1011.0
20260906232026 97 158 0.0 0.0 0.00 0.00 0.00 44 1011.1
20260906231525 97 188 0.0 0.0 0.00 0.00 0.00 44 1011.1
20260906231020 98 186 0.0 0.0 0.00 0.00 0.00 44 1011.0
20260906230519 98 223 0.0 0.0 0.00 0.00 0.00 43 1010.8
20260906230019 97 191 0.0 0.0 0.00 0.00 0.00 44 1011.0
20260906225513 98 182 0.0 0.0 0.00 0.00 0.00 44 1011.0
20260906225010 98 195 0.0 0.0 0.00 0.00 0.00 44 1010.9
20260906224505 98 218 0.0 0.0 0.00 0.00 0.00 43 1011.1
20260906224001 98 208 0.0 0.0 0.00 0.00 0.00 44 1010.9
20260906223457 98 199 0.0 0.0 0.00 0.00 0.00 44 1011.1
20260906222954 98 14 0.9 0.9 0.00 0.00 0.00 43 1011.1
20260906222449 98 193 0.0 0.0 0.00 0.00 0.00 43 1011.2
20260906221947 99 298 0.0 0.9 0.00 0.00 0.00 43 1011.2
20260906221440 99 193 0.0 0.0 0.00 0.00 0.00 43 1011.1
20260906220936 99 198 0.0 0.0 0.00 0.00 0.00 44 1011.1
20260906220426 98 193 0.0 0.9 0.00 0.00 0.00 43 1011.1
20260906215924 99 213 0.0 0.0 0.00 0.00 0.00 43 1011.2
20260906215420 99 188 0.9 0.9 0.00 0.00 0.00 43 1011.2
20260906214918 99 193 0.0 0.9 0.00 0.00 0.00 43 1011.0
20260906214417 99 182 0.9 0.9 0.00 0.00 0.00 44 1011.1
20260906213916 100 207 0.0 0.0 0.00 0.00 0.00 42 1011.3
20260906213411 99 197 0.0 0.0 0.00 0.00 0.00 43 1011.3
20260906212908 99 185 0.9 1.7 0.00 0.00 0.00 44 1011.4
20260906212404 99 192 0.0 0.0 0.00 0.00 0.00 43 1011.5
20260906211903 100 193 0.9 0.9 0.00 0.00 0.00 43 1011.4
20260906211353 99 186 0.9 0.9 0.00 0.00 0.00 45 1011.4
20260906210848 100 183 0.0 0.0 0.00 0.00 0.00 42 1011.7
20260906210343 100 172 0.9 0.9 0.00 0.00 0.00 43 1011.7
20260906205838 99 196 0.0 0.0 0.00 0.00 0.00 43 1011.8
20260906205335 99 190 0.9 1.7 0.00 0.00 0.00 43 1011.8
20260906204830 99 206 0.0 0.0 0.00 0.00 0.00 43 1011.9
20260906204329 99 351 2.6 2.6 0.00 0.00 0.00 43 1012.0
20260906203828 99 188 0.0 0.9 0.00 0.00 0.00 44 1012.0
20260906203323 99 193 0.0 0.0 0.00 0.00 0.00 43 1012.0
20260906202821 99 202 0.0 0.0 0.00 0.00 0.00 43 1012.4
20260906202320 99 202 0.0 0.0 0.00 0.00 0.00 43 1012.3
20260906201815 99 147 0.9 0.9 0.00 0.00 0.00 43 1012.2
20260906201314 99 228 0.9 1.7 0.00 0.00 0.00 42 1012.3
20260906200810 98 189 0.9 1.7 0.00 0.00 0.00 44 1012.4
20260906200306 99 184 0.0 0.9 0.00 0.00 0.00 43 1012.4
20260906195801 99 195 0.0 0.0 0.00 0.00 0.00 43 1012.4
20260906195258 99 200 0.9 0.9 0.00 0.00 0.00 42 1012.5
20260906194753 98 85 0.0 0.9 0.00 0.00 0.00 43 1012.6
20260906194249 98 206 0.0 0.0 0.00 0.00 0.00 43 1012.4
20260906193743 99 74 0.9 1.7 0.00 0.00 0.00 43 1012.8
20260906193237 98 178 0.9 1.7 0.00 0.00 0.00 44 1012.8
20260906192733 98 273 0.9 1.7 0.00 0.00 0.00 43 1012.7
20260906192227 99 233 0.0 0.9 0.00 0.00 0.00 43 1012.9
20260906191721 99 214 0.0 0.0 0.00 0.00 0.00 43 1012.9
20260906191216 99 208 0.0 0.0 0.00 0.00 0.00 43 1012.9
20260906190710 99 182 0.9 0.9 0.00 0.00 0.00 43 1012.9
20260906190205 98 212 0.0 0.0 0.00 0.00 0.00 45 1013.0
20260906185704 97 200 0.0 0.0 0.00 0.00 0.00 46 1013.1
20260906185203 97 184 0.9 0.9 0.00 0.00 0.00 48 1013.1
20260906184658 97 143 1.7 1.7 0.00 0.00 0.00 47 1013.2
20260906184153 97 257 0.0 0.0 0.00 0.00 0.00 47 1013.3
20260906183649 98 187 0.9 0.9 0.00 0.00 0.00 47 1013.2
20260906183145 98 201 0.0 0.0 0.00 0.00 0.00 47 1013.4
20260906182645 98 24 0.9 0.9 0.00 0.00 0.00 47 1013.5
20260906182141 98 216 0.0 0.9 0.00 0.00 0.00 47 1013.7
20260906181636 98 210 0.0 0.0 0.00 0.00 0.00 47 1013.6
20260906181132 98 144 0.0 0.0 0.00 0.00 0.00 48 1013.7
20260906180627 98 187 0.0 0.0 0.00 0.00 0.00 48 1013.7
20260906180127 96 239 0.0 0.0 0.00 0.00 0.00 49 1013.8
20260906175626 97 244 0.9 1.7 0.00 0.00 0.00 48 1013.9
20260906175121 97 196 0.0 0.0 0.00 0.00 0.00 49 1013.9
20260906174619 97 212 0.0 0.0 0.00 0.00 0.00 49 1014.1
20260906174113 96 183 0.9 0.9 0.00 0.00 0.00 51 1014.1
20260906173608 95 191 0.0 0.0 0.00 0.00 0.00 52 1014.2
20260906173104 96 220 0.0 0.9 0.00 0.00 0.00 51 1014.4
20260906172558 96 206 0.0 0.0 0.00 0.00 0.00 52 1014.5
20260906172054 96 65 0.9 0.9 0.00 0.00 0.00 51 1014.6
20260906171553 96 248 0.9 0.9 0.00 0.00 0.00 51 1014.5
20260906171049 94 12 0.9 1.7 0.00 0.00 0.00 53 1014.5
20260906170545 94 220 0.9 0.9 0.00 0.00 0.00 53 1014.7
20260906170044 95 354 1.7 1.7 0.00 0.00 0.00 54 1014.6
20260906165541 95 197 0.0 0.9 0.00 0.00 0.00 54 1014.8
20260906165041 95 205 0.0 0.0 0.00 0.00 0.00 54 1014.8
20260906164540 95 172 0.9 1.7 0.00 0.00 0.00 53 1014.9
20260906164036 95 210 0.0 0.0 0.00 0.00 0.00 54 1014.8
20260906163531 95 196 0.0 0.9 0.00 0.00 0.00 54 1014.8
20260906163027 95 203 0.0 0.0 0.00 0.00 0.00 55 1014.9
20260906162524 94 202 0.0 0.9 0.00 0.00 0.00 55 1015.0
20260906162019 94 259 0.9 0.9 0.00 0.00 0.00 57 1014.9
20260906161514 95 196 0.0 0.0 0.00 0.00 0.00 55 1014.8
20260906161013 94 192 0.0 0.0 0.00 0.00 0.00 58 1015.1
20260906160507 92 208 0.0 0.0 0.00 0.00 0.00 60 1014.9
20260906160006 93 234 0.0 0.0 0.00 0.00 0.00 58 1015.0
20260906155504 92 161 0.0 0.0 0.00 0.00 0.00 61 1015.1
20260906155000 91 189 0.0 0.0 0.00 0.00 0.00 65 1014.9
20260906154455 89 193 0.0 0.0 0.00 0.00 0.00 66 1014.7
20260906153953 89 187 0.0 0.0 0.00 0.00 0.00 67 1014.9
20260906153452 89 200 0.0 0.0 0.00 0.00 0.00 68 1014.7
20260906152948 88 192 0.0 0.0 0.00 0.00 0.00 70 1014.9
20260906152447 88 175 0.0 0.0 0.00 0.00 0.00 69 1014.8
20260906151946 87 197 0.0 0.0 0.00 0.00 0.00 71 1014.8
20260906151442 87 180 0.0 0.0 0.00 0.00 0.00 71 1014.5
20260906150938 87 191 0.0 0.0 0.00 0.00 0.00 72 1014.8
20260906150432 86 200 0.0 0.0 0.00 0.00 0.00 72 1014.8
20260906145926 86 198 0.0 0.0 0.00 0.00 0.00 73 1014.6
20260906145425 86 182 0.0 0.0 0.00 0.00 0.00 74 1014.8
20260906144921 85 184 0.0 0.0 0.00 0.00 0.00 75 1014.8
20260906144421 85 203 0.0 0.0 0.00 0.00 0.00 76 1014.6
20260906143916 84 183 0.0 0.0 0.00 0.00 0.00 76 1014.6
20260906143412 84 198 0.0 0.0 0.00 0.00 0.00 77 1014.5
20260906142908 84 179 0.0 0.0 0.00 0.00 0.00 78 1014.5
20260906142407 83 199 0.0 0.0 0.00 0.00 0.00 78 1014.6
20260906141902 83 188 0.0 0.0 0.00 0.00 0.00 79 1014.7
20260906141401 82 188 0.0 0.0 0.00 0.00 0.00 80 1014.8
20260906140855 82 194 0.0 0.0 0.00 0.00 0.00 80 1014.8
20260906140350 82 196 0.0 0.0 0.00 0.00 0.00 82 1014.7
20260906135849 82 186 0.0 0.0 0.00 0.00 0.00 82 1014.7
20260906135343 81 188 0.0 0.0 0.00 0.00 0.00 84 1014.7
20260906134838 81 178 0.0 0.0 0.00 0.00 0.00 84 1014.6
20260906134333 80 194 0.0 0.0 0.00 0.00 0.00 85 1014.6
20260906133829 80 184 0.0 0.0 0.00 0.00 0.00 86 1014.5
20260906133325 80 188 0.0 0.0 0.00 0.00 0.00 87 1014.6
20260906132820 79 198 0.0 0.0 0.00 0.00 0.00 88 1014.6
20260906132315 79 203 0.0 0.0 0.00 0.00 0.00 89 1014.5
20260906131810 78 203 0.0 0.0 0.00 0.00 0.00 89 1014.3
20260906131305 78 193 0.0 0.0 0.00 0.00 0.00 90 1014.4
20260906130801 78 189 0.0 0.0 0.00 0.00 0.00 91 1014.3
20260906130255 77 192 0.0 0.0 0.00 0.00 0.00 92 1014.5
20260906125754 77 192 0.0 0.0 0.00 0.00 0.00 92 1014.4
20260906125253 77 192 0.0 0.0 0.00 0.00 0.00 92 1014.5
20260906124752 77 192 0.0 0.0 0.00 0.00 0.00 92 1014.3
20260906124248 77 192 0.0 0.0 0.00 0.00 0.00 92 1014.0
20260906123747 77 192 0.0 0.0 0.00 0.00 0.00 92 1014.0
20260906123242 77 192 0.0 0.0 0.00 0.00 0.00 92 1014.1
20260906122742 77 192 0.0 0.0 0.00 0.00 0.00 92 1014.1
20260906122237 77 192 0.0 0.0 0.00 0.00 0.00 92 1014.1
20260906121733 77 192 0.0 0.0 0.00 0.00 0.00 92 1013.9
20260906121230 77 192 0.0 0.0 0.00 0.00 0.00 92 1014.0
20260906120725 77 192 0.0 0.0 0.00 0.00 0.00 92 1014.0
20260906120222 77 192 0.0 0.0 0.00 0.00 0.00 92 1014.0
20260906115717 77 192 0.0 0.0 0.00 0.00 0.00 92 1013.9
20260906115212 77 192 0.0 0.0 0.00 0.00 0.00 92 1013.7
20260906114712 77 192 0.0 0.0 0.00 0.00 0.00 92 1013.7
20260906114206 77 192 0.0 0.0 0.00 0.00 0.00 92 1013.9
20260906113701 77 192 0.0 0.0 0.00 0.00 0.00 92 1013.9
20260906113201 77 192 0.0 0.0 0.00 0.00 0.00 92 1013.7
20260906112700 77 192 0.0 0.0 0.00 0.00 0.00 92 1013.8
20260906112158 77 192 0.0 0.0 0.00 0.00 0.00 92 1013.8
20260906111657 77 192 0.0 0.0 0.00 0.00 0.00 92 1013.6
20260906111151 77 192 0.0 0.0 0.00 0.00 0.00 92 1013.6
20260906110646 77 192 0.0 0.0 0.00 0.00 0.00 91 1013.5
20260906110142 77 192 0.0 0.0 0.00 0.00 0.00 91 1013.4
20260906105635 77 192 0.0 0.0 0.00 0.00 0.00 91 1013.4
20260906105132 77 192 0.0 0.0 0.00 0.00 0.00 91 1013.5
20260906104631 77 192 0.0 0.0 0.00 0.00 0.00 91 1013.3
20260906104125 77 192 0.0 0.0 0.00 0.00 0.00 91 1013.5
20260906103623 77 192 0.0 0.0 0.00 0.00 0.00 90 1013.4
20260906103119 77 192 0.0 0.0 0.00 0.00 0.00 90 1013.5
20260906102614 77 192 0.0 0.0 0.00 0.00 0.00 90 1013.3
20260906102108 77 192 0.0 0.0 0.00 0.00 0.00 90 1013.5
20260906101603 78 192 0.0 0.0 0.00 0.00 0.00 90 1013.4
20260906101102 78 192 0.0 0.0 0.00 0.00 0.00 90 1013.1
20260906100558 78 192 0.0 0.0 0.00 0.00 0.00 90 1013.0
20260906100053 78 192 0.0 0.0 0.00 0.00 0.00 90 1013.1
20260906095547 78 192 0.0 0.0 0.00 0.00 0.00 89 1013.2
20260906095043 78 192 0.0 0.0 0.00 0.00 0.00 89 1013.0
20260906094541 78 192 0.0 0.0 0.00 0.00 0.00 89 1012.8
20260906094037 78 192 0.0 0.0 0.00 0.00 0.00 89 1012.8
20260906093534 78 192 0.0 0.0 0.00 0.00 0.00 89 1012.8
20260906093033 78 192 0.0 0.0 0.00 0.00 0.00 89 1012.7
20260906092528 78 192 0.0 0.0 0.00 0.00 0.00 88 1012.8
20260906092024 78 192 0.0 0.0 0.00 0.00 0.00 88 1012.6
20260906091519 78 192 0.0 0.0 0.00 0.00 0.00 88 1012.7
20260906091016 78 192 0.0 0.0 0.00 0.00 0.00 88 1012.9
20260906090516 79 192 0.0 0.0 0.00 0.00 0.00 87 1012.8
20260906090011 79 192 0.0 0.0 0.00 0.00 0.00 87 1012.6
20260906085510 79 192 0.0 0.0 0.00 0.00 0.00 87 1012.7
20260906085009 79 192 0.0 0.0 0.00 0.00 0.00 87 1012.5
20260906084504 79 192 0.0 0.0 0.00 0.00 0.00 87 1012.6
20260906084003 79 192 0.0 0.0 0.00 0.00 0.00 87 1012.7
20260906083459 79 192 0.0 0.0 0.00 0.00 0.00 87 1012.7
20260906082958 79 191 0.0 0.0 0.00 0.00 0.00 86 1012.7
20260906082454 79 191 0.0 0.0 0.00 0.00 0.00 86 1012.6
20260906081949 79 192 0.0 0.0 0.00 0.00 0.00 86 1012.8
20260906081444 79 192 0.0 0.0 0.00 0.00 0.00 86 1012.9
20260906080940 79 191 0.0 0.0 0.00 0.00 0.00 86 1012.9
20260906080436 80 191 0.0 0.0 0.00 0.00 0.00 86 1012.9
20260906075931 80 191 0.0 0.0 0.00 0.00 0.00 86 1012.8
20260906075426 80 191 0.0 0.0 0.00 0.00 0.00 85 1012.9
20260906074921 80 191 0.0 0.0 0.00 0.00 0.00 85 1012.9
20260906074420 80 191 0.0 0.0 0.00 0.00 0.00 85 1012.9
20260906073919 80 191 0.0 0.0 0.00 0.00 0.00 85 1013.1
20260906073409 80 191 0.0 0.0 0.00 0.00 0.00 84 1012.9
20260906072906 80 191 0.0 0.0 0.00 0.00 0.00 84 1013.0
20260906072401 80 191 0.0 0.0 0.00 0.00 0.00 84 1013.0
20260906071856 81 191 0.0 0.0 0.00 0.00 0.00 84 1013.0
20260906071352 81 190 0.0 0.0 0.00 0.00 0.00 83 1013.0
20260906070847 81 190 0.0 0.0 0.00 0.00 0.00 83 1012.9
20260906070343 81 184 0.0 0.0 0.00 0.00 0.00 82 1012.8
20260906065839 81 193 0.0 0.0 0.00 0.00 0.00 82 1012.8
20260906065333 81 193 0.0 0.0 0.00 0.00 0.00 82 1012.9
20260906064828 81 187 0.0 0.0 0.00 0.00 0.00 81 1012.9
20260906064325 82 197 0.0 0.0 0.00 0.00 0.00 81 1012.9
20260906063819 82 199 0.0 0.0 0.00 0.00 0.00 81 1012.9
20260906063315 82 190 0.0 0.0 0.00 0.00 0.00 80 1013.1
20260906062810 82 193 0.0 0.0 0.00 0.00 0.00 80 1013.1
20260906062309 82 205 0.0 0.0 0.00 0.00 0.00 80 1013.0
20260906061804 82 202 0.0 0.0 0.00 0.00 0.00 80 1013.2
20260906061301 82 191 0.0 0.0 0.00 0.00 0.00 80 1013.3
20260906060801 82 204 0.0 0.0 0.00 0.00 0.00 79 1013.2
20260906060259 82 200 0.0 0.0 0.00 0.00 0.00 79 1013.4
20260906055754 82 200 0.0 0.0 0.00 0.00 0.00 78 1013.3
20260906055249 83 206 0.0 0.0 0.00 0.00 0.00 78 1013.3
20260906054744 83 185 0.0 0.0 0.00 0.00 0.00 77 1013.2
20260906054240 83 183 0.0 0.0 0.00 0.00 0.00 77 1013.2
20260906053736 83 198 0.0 0.0 0.00 0.00 0.00 77 1013.2
20260906053232 83 220 0.0 0.0 0.00 0.00 0.00 77 1013.2
20260906052727 83 200 0.0 0.0 0.00 0.00 0.00 76 1013.2
20260906052223 83 198 0.0 0.0 0.00 0.00 0.00 76 1013.1
20260906051720 83 206 0.0 0.0 0.00 0.00 0.00 76 1013.3
20260906051219 83 195 0.0 0.0 0.00 0.00 0.00 75 1013.1
20260906050714 83 232 0.0 0.0 0.00 0.00 0.00 75 1013.2
20260906050209 83 191 0.0 0.0 0.00 0.00 0.00 75 1013.2
20260906045708 83 200 0.0 0.0 0.00 0.00 0.00 74 1013.1
20260906045202 83 198 0.0 0.0 0.00 0.00 0.00 74 1013.0
20260906044659 84 205 0.0 0.0 0.00 0.00 0.00 73 1012.9
20260906044154 84 206 0.0 0.0 0.00 0.00 0.00 73 1013.0
20260906043650 84 207 0.0 0.0 0.00 0.00 0.00 73 1012.7
20260906043145 84 191 0.0 0.0 0.00 0.00 0.00 72 1013.1
20260906042640 84 200 0.0 0.0 0.00 0.00 0.00 72 1013.1
20260906042139 84 201 0.0 0.0 0.00 0.00 0.00 71 1013.0
20260906041629 85 211 0.0 0.0 0.00 0.00 0.00 71 1013.0
20260906041124 85 207 0.0 0.0 0.00 0.00 0.00 70 1013.0
20260906040620 85 205 0.0 0.0 0.00 0.00 0.00 71 1013.1
20260906040115 85 193 0.0 0.0 0.00 0.00 0.00 71 1013.2
20260906035610 85 194 0.0 0.0 0.00 0.00 0.00 71 1013.3
20260906035106 85 193 0.0 0.0 0.00 0.00 0.00 71 1013.2
20260906034606 85 200 0.0 0.0 0.00 0.00 0.00 71 1013.0
20260906034101 85 210 0.0 0.0 0.00 0.00 0.00 71 1013.0
20260906033556 85 206 0.0 0.0 0.00 0.00 0.00 71 1013.1
20260906033051 85 193 0.0 0.0 0.00 0.00 0.00 71 1013.3
20260906032548 85 184 0.0 0.0 0.00 0.00 0.00 70 1013.0
20260906032047 86 191 0.0 0.0 0.00 0.00 0.00 70 1012.9
20260906031543 86 204 0.0 0.0 0.00 0.00 0.00 70 1013.0
20260906031038 86 192 0.0 0.0 0.00 0.00 0.00 70 1013.1
20260906030538 86 188 0.0 0.0 0.00 0.00 0.00 69 1013.0
20260906030037 86 201 0.0 0.0 0.00 0.00 0.00 69 1013.1
20260906025532 86 225 0.0 0.0 0.00 0.00 0.00 69 1013.0
20260906025030 86 187 0.0 0.0 0.00 0.00 0.00 68 1013.1
20260906024525 86 188 0.0 0.0 0.00 0.00 0.00 68 1013.0
20260906024019 86 191 0.0 0.0 0.00 0.00 0.00 68 1012.8
20260906023516 87 193 0.0 0.0 0.00 0.00 0.00 67 1012.9
20260906023010 87 201 0.0 0.0 0.00 0.00 0.00 66 1012.9
20260906022506 87 173 0.0 0.0 0.00 0.00 0.00 66 1012.9
20260906022001 87 28 0.9 0.9 0.00 0.00 0.00 65 1012.8
20260906021455 87 185 0.0 0.0 0.00 0.00 0.00 65 1012.7
20260906020950 87 175 0.0 0.0 0.00 0.00 0.00 65 1012.3
20260906020444 87 168 0.0 0.0 0.00 0.00 0.00 64 1012.4
20260906015938 88 204 0.0 0.0 0.00 0.00 0.00 63 1012.3
20260906015432 88 179 0.0 0.0 0.00 0.00 0.00 63 1012.2
20260906014926 88 198 0.0 0.0 0.00 0.00 0.00 63 1012.3
20260906014426 88 240 0.9 0.9 0.00 0.00 0.00 62 1012.2
20260906013922 88 173 0.0 0.9 0.00 0.00 0.00 62 1012.1
20260906013417 88 205 0.0 0.0 0.00 0.00 0.00 61 1012.0
20260906012913 88 196 0.0 0.0 0.00 0.00 0.00 61 1011.9
20260906012408 89 114 0.0 0.0 0.00 0.00 0.00 61 1011.7
20260906011907 89 199 0.0 0.0 0.00 0.00 0.00 60 1011.7
20260906011402 89 198 0.0 0.0 0.00 0.00 0.00 60 1011.7
20260906010858 89 200 0.0 0.0 0.00 0.00 0.00 60 1011.6
20260906010354 89 198 0.0 0.0 0.00 0.00 0.00 59 1011.5
20260906005849 90 195 0.9 1.7 0.00 0.00 0.00 58 1011.5
20260906005348 90 184 0.0 0.0 0.00 0.00 0.00 57 1011.5
20260906004847 91 205 0.0 0.0 0.00 0.00 0.00 57 1011.6
20260906004342 91 187 0.0 0.0 0.00 0.00 0.00 56 1011.7
20260906003837 92 183 0.9 0.9 0.00 0.00 0.00 55 1011.4
20260906003332 93 207 0.0 0.0 0.00 0.00 0.00 53 1011.3
20260906002828 93 203 0.9 0.9 0.00 0.00 0.00 52 1011.4
20260906002327 94 192 2.6 7.0 0.00 0.00 0.00 51 1011.3
20260906001823 94 190 0.0 0.0 0.00 0.00 0.00 51 1011.4
20260906001318 94 193 0.0 0.0 0.00 0.00 0.00 51 1011.2
20260906000813 95 169 0.9 0.9 0.00 0.00 0.00 51 1011.1
20260906000308 95 169 1.7 1.7 0.00 0.00 0.00 50 1011.0
20260905235803 96 190 0.0 0.9 0.00 0.00 0.00 48 1011.0
20260905235306 96 192 0.0 0.0 0.00 0.00 0.00 47 1011.1